{"data":{"norad_id":58065,"epoch":"2026-05-24T22:52:37.573824Z","epoch_age_seconds":72399,"freshness":"FRESH","line1":"1 58065U 23158Q   26144.95321266 -.00001586  00000+0 -48126-4 0  9990","line2":"2 58065  43.0019 316.3438 0001289 262.8227  97.2478 15.27574907145239","mean_motion":15.27574907,"eccentricity":0.0001289,"inclination_deg":43.0019,"raan_deg":316.3438,"arg_perigee_deg":262.8227,"mean_anomaly_deg":97.2478,"bstar":-4.8126e-5,"rev_number":14523,"period_min":94.267063003019,"perigee_km":482.17993750268,"apogee_km":483.94875520977,"semimajor_km":6861.2013463562,"source":"CELESTRAK","updated_at":"2026-05-25T13:38:18.501800Z"}}